This is the latest recevied weather packets stored in our database for station/object WA1NHP. If no packets are shown the sender has not sent any weather packets the latest 10 day(s).
| Time | Temp. | Humidity | Pressure | Rain* | Wind** | Luminosity | Snow |
|---|---|---|---|---|---|---|---|
| 1777472044 | 12.78° C | 65% | 1023.9 hPa | 0 mm | - | 814 W/m² | - |
| 1777471444 | 11.67° C | 68% | 1023.9 hPa | 0 mm | - | 791 W/m² | - |
| 1777470844 | 11.11° C | 70% | 1023.9 hPa | 0 mm | - | 765 W/m² | - |
| 1777470243 | 11.11° C | 71% | 1023.9 hPa | 0 mm | - | 691 W/m² | - |
| 1777469644 | 10.56° C | 73% | 1023.9 hPa | 0 mm | - | 394 W/m² | - |
| 1777469044 | 10° C | 76% | 1023.9 hPa | 0 mm | - | 329 W/m² | - |
| 1777468444 | 9.44° C | 77% | 1023.9 hPa | 0 mm | - | 227 W/m² | - |
| 1777467844 | 8.33° C | 79% | 1023.9 hPa | 0 mm | - | 348 W/m² | - |
| 1777467244 | 7.78° C | 82% | 1023.9 hPa | 0 mm | - | 255 W/m² | - |
| 1777466644 | 7.22° C | 84% | 1023.9 hPa | 0 mm | - | 299 W/m² | - |
| 1777466044 | 6.67° C | 86% | 1023.9 hPa | 0 mm | - | 406 W/m² | - |
| 1777465444 | 6.11° C | 88% | 1023.9 hPa | 0 mm | - | 121 W/m² | - |
| 1777464844 | 6.11° C | 89% | 1023.9 hPa | 0 mm | - | 128 W/m² | - |
| 1777464243 | 5.56° C | 89% | 1023.9 hPa | 0 mm | - | 186 W/m² | - |
| 1777463643 | 5.56° C | 90% | 1023.9 hPa | 0 mm | - | 151 W/m² | - |
| 1777463044 | 5.56° C | 92% | 1023.9 hPa | 0 mm | - | 141 W/m² | - |
| 1777462443 | 5° C | 92% | 1023.9 hPa | 0 mm | - | 113 W/m² | - |
| 1777461844 | 5° C | 92% | 1023.9 hPa | 0 mm | - | 111 W/m² | - |
| 1777461244 | 5° C | 92% | 1023.9 hPa | 0 mm | - | 86 W/m² | - |
| 1777460644 | 5° C | 93% | 1023.9 hPa | 0 mm | - | 70 W/m² | - |
| 1777460044 | 4.44° C | 93% | 1023.9 hPa | 0 mm | - | 62 W/m² | - |
| 1777459444 | 4.44° C | 93% | 1023.9 hPa | 0 mm | - | 40 W/m² | - |
| 1777458844 | 4.44° C | 93% | 1023.9 hPa | 0 mm | - | 33 W/m² | - |
| 1777458244 | 4.44° C | 93% | 1023.9 hPa | 0 mm | - | 23 W/m² | - |
| 1777457644 | 4.44° C | 93% | 1023.9 hPa | 0 mm | - | 16 W/m² | - |
* Rain latest hour (hover to see other rain measurements)
** Current wind speed in m/s (hover to see current wind gust speed)